Andrew Craven

Log

Date Distance Time Pace Comments Action
10/18/20 5,000m 19:53.5 1:59.3 View workout
09/23/20 5,000m 22:34.1 2:15.4

Target HR 140

View workout
09/19/20 5,000m 23:36.2 2:21.6

Target HR 140

View workout
08/06/20 5,000m 20:26.6 2:02.6 View workout
07/29/20 5,000m 20:55.9 2:05.5 View workout
07/26/20 5,000m 20:47.8 2:04.7 View workout
07/16/20 2,000m 7:38.8 1:54.7 View workout
07/16/20 1,019m 4:13.3 2:04.2 View workout
07/11/20 5,000m 20:47.5 2:04.7 View workout
07/04/20 5,000m 20:32.6 2:03.2 View workout
06/10/20 5,000m 19:56.0 1:59.6 View workout
06/06/20 5,000m 19:58.5 1:59.8 View workout
05/27/20 5,000m 20:08.8 2:00.8 View workout
05/11/20 5,000m 19:53.3 1:59.3 View workout
05/03/20 5,000m 20:38.1 2:03.8 View workout
04/12/20 5,000m 20:58.1 2:05.8 View workout
03/28/20 5,000m 19:58.3 1:59.8 View workout
03/16/20 2,500m 10:44.9 2:08.9 View workout
03/16/20 2,500m 10:20.7 2:04.1 View workout
03/15/20 5,000m 19:44.4 1:58.4 View workout